Home > Time Zones > World Clock > Weather > Palau > Koror > Past weeks

Flag for Palau Weather past 2 weeks in Koror, Palau

Now
81 °F

Mostly cloudy.


Feels Like: 87 °F
Forecast: 82 / 88 °F
Wind: 9 mph from Southwest

Location: Koror / Palau Island

Current Time: Sep 5, 2015 at 11:24:44 PM

Latest Report: Sep 5, 2015 at 10:50 PM


Visibility: 14 mi

Pressure: 29.87 "Hg

Humidity: 89%

Dew point: 77 °F

Location of KororLocation

Historic Weather in Koror — Graph

°F

Koror temperature yesterday

Maximum temperature yesterday: 88 °F (at 10:50 AM)
Minimum temperature yesterday: 81 °F (at 12:55 AM)
Average temperature yesterday: 84 °F

Past Weeks' High & Low Weather Summary

 TemperatureHumidityPressure
High88 °F (Aug 24, 11:50 AM)100% (Aug 24, 12:53 AM)29.94 "Hg (Aug 24, 12:53 AM)
Low73 °F (Aug 24, 12:53 AM)62% (Aug 25, 10:52 AM)29.76 "Hg (Aug 27, 4:51 PM)
Average82 °F83%29.85 "Hg
* Reported Aug 21 9:54 PM — Sep 5 9:50 PM, Koror, Weather by CustomWeather, © 2015

Note: Actual official high and low records may vary slightly from our data, if they occured in-between our weather recording intervals... More about our weather records

Advertising

Koror weather history for previous 24 hours

 ConditionsComfort  
Time TempWeatherWind HumidityBarometerVisibility
9:50 PM
Sat, Sep 5
82 °FRain showers. Mostly cloudy.10 mph84%29.87 "Hg12 mi
8:50 PM82 °FSprinkles. Overcast.7 mph84%29.85 "Hg14 mi
7:50 PM82 °FOvercast.9 mph79%29.83 "Hg15 mi
6:50 PM82 °FOvercast.8 mph79%29.82 "Hg15 mi
5:50 PM84 °FCloudy.13 mph74%29.80 "Hg15 mi
4:50 PM86 °FBroken clouds.13 mph70%29.78 "Hg15 mi
3:54 PM86 °FBroken clouds.12 mph75%29.78 "Hg15 mi
2:53 PM88 °FBroken clouds.15 mph66%29.79 "Hg15 mi
1:54 PM88 °FBroken clouds.16 mph70%29.81 "Hg15 mi
12:51 PM88 °FBroken clouds.18 mph70%29.83 "Hg15 mi
11:52 AM88 °FBroken clouds.16 mph70%29.84 "Hg15 mi
10:50 AM88 °FBroken clouds.15 mph70%29.88 "Hg15 mi
9:55 AM88 °FBroken clouds.15 mph70%29.88 "Hg15 mi
8:51 AM86 °FBroken clouds.13 mph75%29.89 "Hg15 mi
7:50 AM82 °FBroken clouds.9 mph84%29.88 "Hg15 mi
6:50 AM81 °FBroken clouds.9 mph84%29.86 "Hg15 mi
5:50 AM81 °FOvercast.9 mph89%29.85 "Hg15 mi
4:55 AM81 °FPassing clouds.8 mph84%29.84 "Hg14 mi
3:50 AM81 °FPassing clouds.7 mph84%29.85 "Hg14 mi
2:50 AM81 °FPartly cloudy.9 mph89%29.85 "Hg16 mi
1:50 AM81 °FPartly cloudy.10 mph84%29.85 "Hg14 mi
12:50 AM82 °FPartly cloudy.10 mph84%29.86 "Hg14 mi
11:53 PM
Fri, Sep 4
82 °FPartly cloudy.9 mph79%29.89 "Hg14 mi
Weather by CustomWeather, © 2015

See weather overviewHow to use our weather pages